Location: Newark
(52.3735°N, 16.9806°E)
Time: 04:26:59
(UTC+00:00)

LilacSat-2 - Pass Details

Date: 04 December 2021
Orbit: 511 x 532 km, 97.5° (Epoch: 16 January)

Event Time Altitude Azimuth Distance (km) Brightness Sun altitude
Rises 03:30:09 0° 30° (NNE) 2,688 ? -28.3°
Reaches altitude 10° 03:33:24 10° 60° (ENE) 1,793 ? -27.8°
Maximum altitude 03:35:09 13° 87° (E) 1,625 ? -27.6°
Drops below altitude 10° 03:36:53 10° 114° (ESE) 1,788 ? -27.3°
Sets 03:40:06 0° 144° (SE) 2,671 ? -26.8°
